Ionia, MI

7:53 PM EST on November 13, 2019 (GMT -0500)
Ionia

Weather History for KY70 - September, 2019

Change the Weather History Date:

Monday, September 30, 2019

  Actual Average (WUND) Record (WUND)
Temperature  
Mean Temperature 70 °F -  
Max Temperature 84 °F - - (-1)
Min Temperature 57 °F - - (-1)
Cooling Degree Days 6    
Growing Degree Days 20 (Base 50)    
Moisture  
Dew Point 63 °F    
Average Humidity 86    
Maximum Humidity 100    
Minimum Humidity 58    
Precipitation  
Precipitation 0.00 in - - ()
Sea Level Pressure  
Sea Level Pressure 30.07 in    
Wind  
Wind Speed 6 mph ()    
Max Wind Speed 16 mph    
Max Gust Speed 23 mph    
Visibility 5.9 miles    
Events Fog    
Averages and records for this station are not official NWS values.
T = Trace of Precipitation, MM = Missing Value Source: Averaged Metar Reports

Daily Weather History Graph

Daily Weather History Graph

Search for Another Location

Airport or City:

Astronomy

Sep. 30, 2019 Rise Set
Actual Time 7:36 AM EDT 7:23 PM EDT
Civil Twilight 7:07 AM EDT 7:51 PM EDT
Nautical Twilight 6:34 AM EDT 8:24 PM EDT
Astronomical Twilight 6:01 AM EDT 8:57 PM EDT
Moon 9:41 AM EDT (9/30) 8:55 PM EDT (9/30)
Length of Visible Light 12h 43m
Length of Day
11h 47m
Waxing Crescent, 5% of the Moon is Illuminated
Sep 30
Waxing Crescent
Oct 5
First Quarter
Oct 13
Full
Oct 21
Last Quarter
Oct 27
New

Hourly Weather History & Observations

Time (EDT) Temp. Heat Index Dew Point Humidity Pressure Visibility Wind Dir Wind Speed Gust Speed Precip Events Conditions
12:13 AM 59.0 °F - 57.2 °F 94% 30.20 in 7.0 mi ENE 5.8 mph - N/A   Overcast
12:31 AM 57.2 °F - 57.2 °F 100% 30.19 in 5.0 mi East 5.8 mph - N/A   Overcast
12:51 AM 57.2 °F - 57.2 °F 100% 30.19 in 4.0 mi ENE 6.9 mph - N/A   Overcast
1:11 AM 57.2 °F - 57.2 °F 100% 30.19 in 3.0 mi ENE 6.9 mph - N/A   Overcast
1:32 AM 57.2 °F - 55.4 °F 94% 30.19 in 1.8 mi ENE 8.1 mph - N/A   Overcast
1:52 AM 57.2 °F - 55.4 °F 94% 30.19 in 1.2 mi ENE 5.8 mph - N/A   Overcast
2:31 AM 57.2 °F - 55.4 °F 94% 30.18 in 1.0 mi ENE 4.6 mph - N/A   Overcast
2:51 AM 57.2 °F - 55.4 °F 94% 30.17 in 0.8 mi ENE 5.8 mph - N/A   Overcast
3:13 AM 57.2 °F - 55.4 °F 94% 30.17 in 0.5 mi ENE 6.9 mph - N/A Fog Fog
3:31 AM 57.2 °F - 55.4 °F 94% 30.17 in 0.5 mi ENE 5.8 mph - N/A Fog Fog
3:51 AM 57.2 °F - 55.4 °F 94% 30.16 in 0.5 mi ENE 5.8 mph - N/A Fog Fog
4:12 AM 57.2 °F - 55.4 °F 94% 30.16 in 0.8 mi East 6.9 mph - N/A   Overcast
4:31 AM 57.2 °F - 55.4 °F 94% 30.15 in 0.8 mi ENE 4.6 mph - N/A   Overcast
4:51 AM 57.2 °F - 57.2 °F 100% 30.15 in 0.8 mi ENE 5.8 mph - N/A   Overcast
5:11 AM 57.2 °F - 57.2 °F 100% 30.15 in 0.5 mi East 5.8 mph - N/A Fog Fog
5:31 AM 57.2 °F - 57.2 °F 100% 30.15 in 0.5 mi East 4.6 mph - N/A Fog Fog
5:51 AM 57.2 °F - 57.2 °F 100% 30.15 in 0.8 mi East 6.9 mph - N/A   Overcast
6:12 AM 57.2 °F - 57.2 °F 100% 30.14 in 1.0 mi ENE 5.8 mph - N/A   Overcast
6:31 AM 57.2 °F - 57.2 °F 100% 30.14 in 1.2 mi East 4.6 mph - N/A   Overcast
6:51 AM 57.2 °F - 57.2 °F 100% 30.14 in 1.2 mi East 4.6 mph - N/A   Overcast
7:11 AM 57.2 °F - 57.2 °F 100% 30.14 in 1.0 mi East 3.5 mph - N/A   Overcast
7:33 AM 59.0 °F - 57.2 °F 94% 30.14 in 1.0 mi ENE 5.8 mph - N/A   Overcast
7:51 AM 59.0 °F - 57.2 °F 94% 30.13 in 0.5 mi East 5.8 mph - N/A Fog Fog
8:11 AM 59.0 °F - 57.2 °F 94% 30.14 in 0.5 mi East 5.8 mph - N/A Fog Fog
8:31 AM 59.0 °F - 57.2 °F 94% 30.14 in 0.8 mi East 4.6 mph - N/A   Overcast
8:51 AM 59.0 °F - 57.2 °F 94% 30.14 in 1.2 mi ESE 4.6 mph - N/A   Overcast
9:11 AM 59.0 °F - 59.0 °F 100% 30.13 in 1.0 mi East 5.8 mph - N/A   Overcast
9:31 AM 59.0 °F - 59.0 °F 100% 30.13 in 1.5 mi ESE 6.9 mph - N/A   Light Drizzle
9:51 AM 60.8 °F - 59.0 °F 94% 30.13 in 2.0 mi ESE 5.8 mph - N/A   Light Drizzle
10:11 AM 60.8 °F - 59.0 °F 94% 30.12 in 2.5 mi ESE 5.8 mph - N/A   Overcast
10:31 AM 62.6 °F - 60.8 °F 94% 30.12 in 4.0 mi SE 9.2 mph - N/A   Overcast
10:56 AM 62.6 °F - 60.8 °F 94% 30.11 in 5.0 mi SE 9.2 mph - N/A   Overcast
11:31 AM 64.4 °F - 64.4 °F 100% 30.10 in 5.0 mi SE 6.9 mph - N/A   Overcast
11:51 AM 66.2 °F - 64.4 °F 94% 30.09 in 7.0 mi SSE 8.1 mph - N/A   Overcast
12:11 PM 68.0 °F - 66.2 °F 94% 30.09 in 10.0 mi SSE 9.2 mph - N/A   Overcast
12:31 PM 68.0 °F - 66.2 °F 94% 30.08 in 7.0 mi SSE 10.4 mph - N/A   Overcast
12:51 PM 69.8 °F - 66.2 °F 88% 30.07 in 10.0 mi South 9.2 mph - N/A   Overcast
1:11 PM 69.8 °F - 68.0 °F 94% 30.07 in 10.0 mi South 10.4 mph 17.3 mph N/A   Overcast
1:31 PM 71.6 °F - 68.0 °F 88% 30.06 in 10.0 mi South 10.4 mph 17.3 mph N/A   Overcast
1:51 PM 73.4 °F - 68.0 °F 83% 30.04 in 10.0 mi South 9.2 mph - N/A   Overcast
2:11 PM 75.2 °F - 68.0 °F 78% 30.03 in 10.0 mi South 11.5 mph - N/A   Mostly Cloudy
2:32 PM 77.0 °F - 68.0 °F 74% 30.02 in 10.0 mi South 11.5 mph - N/A   Clear
2:51 PM 78.8 °F - 68.0 °F 69% 30.00 in 10.0 mi South 10.4 mph - N/A   Clear
3:51 PM 82.4 °F 85.4 °F 68.0 °F 62% 29.99 in 10.0 mi SSW 10.4 mph - N/A   Clear
4:12 PM 82.4 °F 84.6 °F 66.2 °F 58% 29.99 in 10.0 mi SW 12.7 mph 21.9 mph N/A   Scattered Clouds
4:31 PM 82.4 °F 84.6 °F 66.2 °F 58% 29.98 in 10.0 mi SW 16.1 mph 23.0 mph N/A   Scattered Clouds
4:51 PM 82.4 °F 85.4 °F 68.0 °F 62% 29.98 in 10.0 mi SW 16.1 mph - N/A   Scattered Clouds
5:11 PM 84.2 °F 87.3 °F 68.0 °F 58% 29.98 in 10.0 mi SW 13.8 mph 20.7 mph N/A   Clear
5:31 PM 82.4 °F 85.4 °F 68.0 °F 62% 29.98 in 10.0 mi SW 10.4 mph 17.3 mph N/A   Clear
5:51 PM 82.4 °F 85.4 °F 68.0 °F 62% 29.98 in 10.0 mi SW 8.1 mph - N/A   Clear
6:12 PM 82.4 °F 85.4 °F 68.0 °F 62% 29.98 in 10.0 mi SSW 6.9 mph - N/A   Clear
6:31 PM 82.4 °F 86.3 °F 69.8 °F 66% 29.97 in 10.0 mi South 5.8 mph - N/A   Clear
6:51 PM 80.6 °F 83.9 °F 69.8 °F 70% 29.97 in 10.0 mi South 4.6 mph - N/A   Clear
7:11 PM 78.8 °F - 69.8 °F 74% 29.97 in 10.0 mi South 4.6 mph - N/A   Clear
7:31 PM 78.8 °F - 69.8 °F 74% 29.97 in 10.0 mi South 4.6 mph - N/A   Clear
7:51 PM 77.0 °F - 69.8 °F 78% 29.97 in 10.0 mi South 5.8 mph - N/A   Clear
8:11 PM 77.0 °F - 69.8 °F 78% 29.96 in 10.0 mi South 6.9 mph - N/A   Clear
8:31 PM 77.0 °F - 69.8 °F 78% 29.96 in 10.0 mi South 6.9 mph - N/A   Clear
8:51 PM 75.2 °F - 69.8 °F 83% 29.96 in 10.0 mi South 6.9 mph - N/A   Clear
9:11 PM 75.2 °F - 69.8 °F 83% 29.95 in 10.0 mi South 6.9 mph - N/A   Clear
9:31 PM 75.2 °F - 68.0 °F 78% 29.95 in 10.0 mi South 6.9 mph - N/A   Clear
9:51 PM 73.4 °F - 68.0 °F 83% 29.95 in 10.0 mi South 5.8 mph - N/A   Clear
10:11 PM 73.4 °F - 68.0 °F 83% 29.95 in 10.0 mi South 6.9 mph - N/A   Clear
10:31 PM 75.2 °F - 68.0 °F 78% 29.95 in 10.0 mi South 6.9 mph - N/A   Clear
10:51 PM 75.2 °F - 68.0 °F 78% 29.95 in 10.0 mi SSW 5.8 mph - N/A   Clear
11:11 PM 73.4 °F - 68.0 °F 83% 29.95 in 10.0 mi South 5.8 mph - N/A   Clear
11:31 PM 73.4 °F - 68.0 °F 83% 29.95 in 10.0 mi SSW 6.9 mph - N/A   Clear
11:51 PM 75.2 °F - 68.0 °F 78% 29.95 in 10.0 mi SSW 8.1 mph - N/A   Clear